Погода в Ларе

Германия     48°20′14″N   7°52′21″E
темп.,
°C
ветер,
м/с
пор.,
м/с
влажн.,
%
обл.,
%
осадки,
мм/ч
давл.,
гПа
погр.,
м
5 марта, пт
пт501:00+6юз229577 1.6 102060
04:00+6с478979 0.3 1020412
07:00+4ссв479290 0.3 1021509
10:00+5с4681100 0.1 1023745
13:00+7с566582 0.1 10241144
16:00+7ссв57685 0.1 10241023
19:00+4св478343 0.1 1026247
22:00+2св4118259 0.0 1029440
6 марта, сб
сб601:00+1св477429 0.0 1030240
04:00−1ссв47780 0.0 1029155
07:00−1ссв46750 0.0 1030171
10:00+3св57540 0.0 1030698
13:00+8св56380 0.0 10291129
16:00+9св57400 0.0 10271106
19:00+4всв49550 0.0 1028157
22:00+1всв23650 0.0 102937
7 марта, вс
вс701:000всв11680 0.0 102822
04:000в00680 0.0 102721
07:000ю01690 0.0 102621
10:00+4зюз11570 0.0 1025350
13:00+9з11573 0.0 1023545
16:00+9сз116032 0.0 1020645
19:00+5св337144 0.0 102174
22:00+4с237578 0.0 102157
8 марта, пн
пн801:00+1с347549 0.0 102290
04:000с357029 0.0 1021117
07:00−1с357529 0.0 1022128
10:00+3с45660 0.0 1022410
13:00+7с55560 0.0 1022743
16:00+7с56540 0.0 1020681
19:00+3с367015 0.0 1022135
22:00+1св237386 0.0 102348
9 марта, вт
вт901:000св228173 0.0 102328
04:00−1св12850 0.0 102324
07:00−1ссв11850 0.0 102423
10:00+4с22630 0.0 1024416
13:00+8с34530 0.0 1023859
16:00+8с45580 0.0 1022647
19:00+4ссв33720 0.0 102341
22:00+2вюв11780 0.0 102422